Погода в Вольном

Украина / Херсонская область     46°50′24″N   34°36′43″E
темп.,
°C
ветер,
м/с
пор.,
м/с
влажн.,
%
обл.,
%
осадки,
мм/ч
давл.,
гПа
погр.,
м
15 мая, сб
сб1500:00+13зюз45725 0.0 101277
03:00+12зюз34792 0.0 101355
06:00+12юз338284 0.0 101359
09:00+19юз345723 0.0 1014547
12:00+23юз45435 0.0 10141589
15:00+25юз44361 0.0 10132016
18:00+24юз33385 0.0 10131832
21:00+16ююз33685 0.0 101333
16 мая, вс
вс1600:00+15сз117474 0.0 101311
03:00+14ссв227186 0.0 101316
06:00+14ссв367679 0.0 1012110
09:00+21всв4656100 0.0 1011456
12:00+25всв4537100 0.0 10101272
15:00+27св4536100 0.0 10081863
18:00+26ссв4748100 0.0 1005312
21:00+18ю118897 6.6 100623
17 мая, пн
пн1700:00+17с359491 0.8 100592
03:00+18вюв2290100 0.9 100233
06:00+16ююв3394100 1.9 100265
09:00+18ю2389100 3.4 1003331
12:00+20ююз8979100 0.1 1004789
15:00+22юз8963100 0.1 10051471
18:00+20юз797166 0.4 10061013
21:00+15юз49792 0.4 1009197
18 мая, вт
вт1800:00+14ю389314 0.0 1009171
03:00+13ю38960 0.0 1009184
06:00+13ю499470 0.0 1009214
09:00+19ю567026 0.0 1009534
12:00+22ююз796569 1.6 10091028
15:00+22юз10136195 4.2 10091398
18:00+20юз811650 0.1 10091131
21:00+16юз510800 0.1 1011234
19 мая, ср
ср1900:00+13зюз49918 0.0 1012188
03:00+12з339099 0.0 101340
06:00+13зюз228755 0.0 101334
09:00+19ююз006198 0.0 1014532
12:00+20ссв0150100 0.0 10141208
15:00+23в4546100 0.0 10111882
18:00+20вюв696174 0.0 1010714
21:00+16вюв715805 0.0 1009434